Weather in Urtazym

Russia / Orenburg Oblast     52°12′13″N   58°50′33″E
temp.,
°C
wind,
m/s
gust,
m/s
humid.,
%
clouds,
%
prec.,
mm/h
press.,
hPa
HPBL,
m
15 august, mon
mon1523:00+20e6124730 0.0 1018398
02:00+16ene49525 0.0 1019286
05:00+14ne37611 0.0 1020181
08:00+16ene47520 0.0 1022357
11:00+21e56340 0.0 10211121
14:00+24ene44310 0.0 10211579
17:00+25ene44310 0.0 10202024
20:00+21ene33410 0.0 102027
16 august, tue
tue1623:00+17e34490 0.0 102151
02:00+16ene22500 0.0 102213
05:00+14nne33560 0.0 102340
08:00+16nne34500 0.0 1024192
11:00+22ne32370 0.0 1023834
14:00+24n23320 0.0 10221966
17:00+25nne33310 0.0 10212226
20:00+22ene45420 0.0 102288
17 august, wed
wed1723:00+17e39515 0.0 1023187
02:00+16ene22514 0.0 102413
05:00+14ne115429 0.0 102411
08:00+17ne114814 0.0 1024149
11:00+22s11355 0.0 1023839
14:00+25w233085 0.0 10211890
17:00+27nne142834 0.0 10202384
20:00+23ese22376 0.0 101920
18 august, thu
thu1823:00+19nnw11450 0.0 101914
02:00+16nne48560 0.0 1020164
05:00+14nne59584 0.0 1020174
08:00+16nne58510 0.0 1020296
11:00+22ne56356 0.0 10201015
14:00+25ne453351 0.0 10191913
17:00+24ne443596 0.0 10192158
20:00+20ene794592 0.0 1020494
19 august, fri
fri1923:00+15ene485712 0.0 1022265
02:00+14ne34616 0.0 102364
05:00+12ne33650 0.0 102448
08:00+14ene46530 0.0 1026306
11:00+18ene55330 0.0 10271680
14:00+21ene44270 0.0 10272058
17:00+21ene44260 0.0 10262111
20:00+17e33360 0.0 102735